Weather History for Altus AFB, OK

Change the Weather History Date:

Wednesday, September 11, 2013

  Actual Average Record
Temperature  
Mean Temperature 80 °F -  
Max Temperature 94 °F 87 °F 105 °F (2000)
Min Temperature 68 °F 64 °F 51 °F (2001)
Cooling Degree Days 16    
Growing Degree Days 30 (Base 50)    
Moisture  
Dew Point 62 °F    
Average Humidity 59    
Maximum Humidity 88    
Minimum Humidity 29    
Precipitation  
Precipitation 0.00 in - - ()
Sea Level Pressure  
Sea Level Pressure 30.07 in    
Wind  
Wind Speed 7 mph (SE)    
Max Wind Speed 17 mph    
Max Gust Speed 22 mph    
Visibility 10 miles    
Events      
Averages and records for this station are not official NWS values.
T = Trace of Precipitation, MM = Missing Value Source: NWS Daily Summary

Daily Weather History Graph

Daily Weather History Graph

Search for Another Location

Airport:

Trip Planner

Search our weather history database for the weather conditions in past years. The results will help you decide how hot, cold, wet, or windy it might be!

Date:

Astronomy

Sep. 11, 2013 Rise Set
Actual Time 7:17 AM CDT 7:49 PM CDT
Civil Twilight 6:52 AM CDT 8:14 PM CDT
Nautical Twilight 6:22 AM CDT 8:44 PM CDT
Astronomical Twilight 5:51 AM CDT 9:14 PM CDT
Moon 1:31 PM CDT (9/11) No Moon Set
Length of Visible Light 13h 22m
Length of Day
12h 31m
Waxing Crescent, 39% of the Moon is Illuminated
Sep 11
Waxing Crescent
Sep 12
First Quarter
Sep 19
Full
Sep 26
Last Quarter
Oct 4
New

Hourly Weather History & Observations

Time (CDT) Temp. Heat Index Dew Point Humidity Pressure Visibility Wind Dir Wind Speed Gust Speed Precip Events Conditions
12:58 AM 77.9 °F - 63.7 °F 61% 30.03 in 10.0 mi SSE 6.9 mph - N/A   Partly Cloudy
1:58 AM 76.1 °F - 64.0 °F 66% 30.05 in 10.0 mi SE 5.8 mph - N/A   Clear
2:58 AM 74.5 °F - 63.9 °F 69% 30.05 in 10.0 mi ESE 6.9 mph - N/A   Clear
3:58 AM 72.7 °F - 63.3 °F 72% 30.06 in 10.0 mi East 5.8 mph - N/A   Clear
4:18 AM 71.6 °F - 62.6 °F 73% 30.10 in 10.0 mi ESE 5.8 mph - N/A   Mostly Cloudy
4:33 AM 71.6 °F - 64.4 °F 78% 30.10 in 10.0 mi ESE 5.8 mph - N/A   Scattered Clouds
4:58 AM 70.5 °F - 63.0 °F 77% 30.06 in 10.0 mi ESE 5.8 mph - N/A   Clear
5:58 AM 71.4 °F - 64.4 °F 78% 30.06 in 10.0 mi ESE 5.8 mph - N/A   Partly Cloudy
6:58 AM 69.3 °F - 64.2 °F 84% 30.08 in 10.0 mi ESE 4.6 mph - N/A   Clear
7:18 AM 68.0 °F - 64.4 °F 88% 30.12 in 10.0 mi ESE 3.5 mph - N/A   Mostly Cloudy
7:23 AM 68.0 °F - 64.4 °F 88% 30.13 in 10.0 mi ESE 3.5 mph - N/A   Scattered Clouds
7:33 AM 68.0 °F - 64.4 °F 88% 30.13 in 10.0 mi East 4.6 mph - N/A   Mostly Cloudy
7:58 AM 70.9 °F - 64.9 °F 81% 30.09 in 10.0 mi ESE 3.5 mph - N/A   Overcast
8:08 AM 73.4 °F - 66.2 °F 78% 30.14 in 10.0 mi ESE 3.5 mph - N/A   Overcast
8:23 AM 73.4 °F - 66.2 °F 78% 30.14 in 10.0 mi SE 5.8 mph - N/A   Overcast
8:58 AM 75.6 °F - 66.4 °F 73% 30.11 in 10.0 mi SSE 5.8 mph - N/A   Overcast
9:58 AM 79.2 °F - 67.6 °F 68% 30.12 in 10.0 mi SSE 9.2 mph - N/A   Mostly Cloudy
10:58 AM 83.5 °F 86.2 °F 67.1 °F 58% 30.11 in 10.0 mi South 11.5 mph - N/A   Clear
11:58 AM 86.4 °F 88.4 °F 65.8 °F 50% 30.11 in 10.0 mi SSE 13.8 mph - N/A   Scattered Clouds
12:58 PM 88.9 °F 90.7 °F 65.3 °F 45% 30.08 in 10.0 mi South 12.7 mph 20.7 mph N/A   Scattered Clouds
1:58 PM 92.1 °F 92.4 °F 61.9 °F 36% 30.07 in 10.0 mi SSE 11.5 mph 18.4 mph N/A   Scattered Clouds
2:58 PM 91.0 °F 91.5 °F 61.9 °F 38% 30.04 in 10.0 mi South 12.7 mph 21.9 mph N/A   Partly Cloudy
3:36 PM 93.2 °F 93.3 °F 60.8 °F 34% 30.07 in 10.0 mi SSE 13.8 mph 20.7 mph N/A   Mostly Cloudy
3:58 PM 93.9 °F 93.6 °F 60.3 °F 32% 30.02 in 10.0 mi South 17.3 mph 21.9 mph N/A   Mostly Cloudy
4:58 PM 93.6 °F 92.7 °F 58.3 °F 31% 30.01 in 10.0 mi SE 15.0 mph - N/A   Partly Cloudy
5:23 PM 93.2 °F 91.9 °F 57.2 °F 30% 30.04 in 10.0 mi South 16.1 mph - N/A   Partly Cloudy
5:58 PM 93.7 °F 92.3 °F 56.7 °F 29% 29.99 in 10.0 mi South 12.7 mph - N/A   Clear
6:58 PM 91.6 °F 90.1 °F 56.7 °F 31% 29.98 in 10.0 mi SSE 12.7 mph - N/A   Clear
7:58 PM 84.9 °F 84.1 °F 57.2 °F 39% 30.00 in 10.0 mi SSE 8.1 mph - N/A   Clear
8:58 PM 81.3 °F 81.2 °F 56.7 °F 43% 30.02 in 10.0 mi SSE 5.8 mph - N/A   Clear
9:58 PM 77.7 °F - 57.7 °F 50% 30.04 in 10.0 mi East 4.6 mph - N/A   Clear
10:58 PM 75.2 °F - 56.8 °F 53% 30.04 in 10.0 mi East 4.6 mph - N/A   Clear
11:58 PM 73.8 °F - 57.2 °F 56% 30.03 in 10.0 mi ESE 8.1 mph - N/A   Clear